This demonstration page uses our WeatherBlox Daily Observations layout. Learn more.

38.80484, -77.04692

Hourly Observations for November 24, 2019

Temp ( °F °C ) Dew Point ( °F °C ) Humidity (%) Winds ( mph kmh ) Pressure ( in mb ) Visibility ( mi km ) Precip ( " mm )
12:01 am 00:01 Cloudy with Rain 41 5 39 3.9 93 93 NNE 10 17 29.59 1002 5 8.0467 0.03 0.762
12:08 am 00:08 Cloudy with Rain 41 5 39 3.9 93 93 NNE 12 19 29.58 1002 6 9.65604 0.05 1.27
12:17 am 00:17 Cloudy with Light Rain 40 4.4 39 3.9 97 97 NNE 10 17 29.57 1001 7 11.26538 0.06 1.524
12:52 am 00:52 Cloudy with Light Rain 41 5 39 3.9 93 93 NNW 8 13 29.55 1001 6 9.65604 0.11 2.794
1:44 am 01:44 Cloudy with Light Rain 41 5 39 3.9 93 93 NW 9 15 29.54 1000 5 8.0467 0.18 4.572
1:52 am 01:52 Cloudy with Light Rain 41 5 39 3.9 93 93 NNW 8 13 29.53 1000 5 8.0467 0.18 4.572
2:17 am 02:17 Cloudy with Light Rain 41 5 40 4.4 96 96 N 3 6 29.51 999 7 11.26538 0.02 0.508
2:43 am 02:43 Cloudy 41 5 40 4.4 96 96 NNW 7 11 29.49 999 10 16.0934 0.02 0.508
2:52 am 02:52 Cloudy 41 5 40 4.4 96 96 N 8 13 29.47 998 8 12.87472 0.02 0.508
3:52 am 03:52 Cloudy 41 5 39 3.9 93 93 NW 13 20 29.47 998 10 16.0934 0 0
4:30 am 04:30 Cloudy 41 5 39 3.9 93 93 NW 10 17 29.47 998 10 16.0934 0 0
4:40 am 04:40 Cloudy with Light Rain 41 5 39 3.9 93 93 NNW 7 11 29.47 998 10 16.0934 0.001 0.001
4:52 am 04:52 Cloudy with Light Rain 41 5 39 3.9 93 93 WNW 7 11 29.47 998 10 16.0934 0.001 0.001
5:37 am 05:37 Mostly Cloudy 41 5 38 3.3 89 89 NW 9 15 29.48 998 10 16.0934 0.001 0.001
5:52 am 05:52 Cloudy 41 5 38 3.3 89 89 NW 7 11 29.49 999 10 16.0934 0.001 0.001
6:28 am 06:28 Cloudy 41 5 38 3.3 89 89 W 6 9 29.49 999 10 16.0934 0.001 0.001
6:52 am 06:52 Mostly Cloudy with Light Rain 42 5.6 38 3.3 85 85 NW 8 13 29.49 999 10 16.0934 0.001 0.001
7:52 am 07:52 Mostly Cloudy 44 6.7 38 3.3 79 79 WSW 5 7 29.51 999 10 16.0934 0.001 0.001
8:52 am 08:52 Cloudy 46 7.8 37 2.8 71 71 VRB 7 11 29.54 1000 10 16.0934 0 0
9:36 am 09:36 Cloudy 46 7.8 36 2.2 68 68 NNW 18 30 29.56 1001 10 16.0934 0 0
9:52 am 09:52 Cloudy 45 7.2 36 2.2 71 71 WNW 24 39 29.57 1002 10 16.0934 0 0
10:52 am 10:52 Cloudy 45 7.2 35 1.7 68 68 NW 13 20 29.59 1002 10 16.0934 0.001 0.001
11:52 am 11:52 Cloudy 48 8.9 34 1.1 58 58 WNW 13 20 29.57 1001 10 16.0934 0 0
12:52 pm 12:52 Mostly Cloudy 52 11.1 27 -2.8 38 38 WNW 18 30 29.58 1002 10 16.0934 0 0
1:52 pm 13:52 Mostly Sunny 53 11.7 30 -1.1 41 41 WNW 16 26 29.57 1001 10 16.0934 0 0
2:52 pm 14:52 Mostly Sunny 53 11.7 30 -1.1 41 41 WNW 20 31 29.6 1002 10 16.0934 0 0
3:52 pm 15:52 Partly Cloudy 52 11.1 30 -1.1 43 43 W 13 20 29.62 1003 10 16.0934 0 0
4:52 pm 16:52 Clear 50 10 28 -2.2 43 43 WNW 9 15 29.64 1004 10 16.0934 0 0
5:52 pm 17:52 Mostly Clear 48 8.9 29 -1.7 48 48 WNW 10 17 29.67 1005 10 16.0934 0 0
6:52 pm 18:52 Mostly Clear 47 8.3 29 -1.7 50 50 WNW 5 7 29.7 1006 10 16.0934 0 0
7:52 pm 19:52 Mostly Clear 46 7.8 30 -1.1 54 54 WNW 15 24 29.72 1007 10 16.0934 0 0
8:52 pm 20:52 Mostly Clear 46 7.8 31 -0.6 56 56 WNW 9 15 29.73 1007 10 16.0934 0 0
9:52 pm 21:52 Mostly Clear 45 7.2 31 -0.6 58 58 SW 3 6 29.74 1007 10 16.0934 0 0
10:52 pm 22:52 Clear 43 6.1 31 -0.6 63 63 S 6 9 29.75 1007 10 16.0934 0 0
11:52 pm 23:52 Clear 40 4.4 32 0 73 73 WSW 5 7 29.76 1008 10 16.0934 0 0

Powered by AerisWeather